SM2NLD Weather Reports


Display with metric or nautical units.
time (UTC)temp
F
wind
direction
speed
MPH
gust
MPH
rain 1hr
in
rain 24hr
in
rain mn
in
humidity
%
barometer
mb
20260503004851 29 148 1.0 2.0 0.00 0.00 0.00 11 995.2
20260503004713 29 158 0.0 2.0 0.00 0.00 0.00 11 995.1
20260503004503 29 179 0.0 2.0 0.00 0.00 0.00 11 995.1
20260503004351 29 205 1.0 2.0 0.00 0.00 0.00 11 995.0
20260503003852 30 217 0.0 2.0 0.00 0.00 0.00 11 995.0
20260503003603 30 211 0.0 3.0 0.00 0.00 0.00 11 995.0
20260503003351 30 213 0.0 3.0 0.00 0.00 0.00 11 995.1
20260503002851 30 223 1.0 4.0 0.00 0.00 0.00 11 995.1
20260503002713 30 227 2.0 4.0 0.00 0.00 0.00 11 995.1
20260503002703 30 227 2.0 4.0 0.00 0.00 0.00 11 995.1
20260503002351 30 221 2.0 4.0 0.00 0.00 0.00 11 995.1
20260503001851 30 210 2.0 4.0 0.00 0.00 0.00 11 995.0
20260503001803 30 209 2.0 4.0 0.00 0.00 0.00 11 995.0
20260503001351 30 219 2.0 4.0 0.00 0.00 0.00 11 995.0
20260503000903 30 224 1.0 4.0 0.00 0.00 0.00 11 995.0
20260503000851 30 224 0.0 4.0 0.00 0.00 0.00 11 995.0
20260503000713 30 224 1.0 5.0 0.00 0.00 0.00 11 994.9
20260503000351 30 211 1.0 5.0 0.00 0.00 0.00 11 994.9
20260503000003 30 212 1.0 5.0 0.00 0.00 0.00 11 994.8
20260502235851 30 212 3.0 5.0 0.00 0.00 0.00 11 994.9
20260502235403 31 211 1.0 5.0 0.00 0.00 0.00 11 994.9
20260502235351 31 211 2.0 5.0 0.00 0.00 0.00 11 994.9
20260502234851 31 196 2.0 4.0 0.00 0.00 0.00 11 994.7
20260502234713 31 194 1.0 4.0 0.00 0.00 0.00 11 994.9
20260502234503 31 195 1.0 7.0 0.00 0.00 0.00 11 994.9
20260502234351 31 201 2.0 7.0 0.00 0.00 0.00 11 994.9
20260502233851 31 203 2.0 7.0 0.00 0.00 0.00 11 994.9
20260502233603 31 207 3.0 7.0 0.00 0.00 0.00 11 994.7
20260502233351 31 204 2.0 6.0 0.00 0.00 0.00 11 994.9
20260502232851 31 204 2.0 5.0 0.00 0.00 0.00 11 995.0
20260502232713 31 208 2.0 5.0 0.00 0.00 0.00 11 995.0
20260502232703 31 208 2.0 5.0 0.00 0.00 0.00 11 995.0
20260502232351 31 210 1.0 6.0 0.00 0.00 0.00 11 994.9
20260502231851 31 209 1.0 6.0 0.00 0.00 0.00 11 995.0
20260502231803 31 209 1.0 6.0 0.00 0.00 0.00 11 995.0
20260502231351 31 193 2.0 5.0 0.00 0.00 0.00 11 995.0
20260502230903 32 180 2.0 5.0 0.00 0.00 0.00 11 995.0
20260502230852 31 184 4.0 5.0 0.00 0.00 0.00 11 995.0
20260502230712 31 189 2.0 5.0 0.00 0.00 0.00 11 995.0
20260502230351 31 193 2.0 7.0 0.00 0.00 0.00 11 994.9
20260502230003 31 205 2.0 7.0 0.00 0.00 0.00 11 995.0
20260502225851 31 203 3.0 7.0 0.00 0.00 0.00 11 995.1
20260502225403 32 207 2.0 7.0 0.00 0.00 0.00 11 994.9
20260502225351 32 210 3.0 7.0 0.00 0.00 0.00 11 995.1
20260502224851 32 213 3.0 8.0 0.00 0.00 0.00 11 995.1
20260502224713 32 214 2.0 8.0 0.00 0.00 0.00 11 995.0
20260502224503 32 216 2.0 8.0 0.00 0.00 0.00 11 995.0
20260502224351 32 215 2.0 8.0 0.00 0.00 0.00 11 994.9
20260502223851 32 218 3.0 5.0 0.00 0.00 0.00 11 995.2
20260502223603 32 219 2.0 5.0 0.00 0.00 0.00 11 995.1
20260502223351 32 216 2.0 5.0 0.00 0.00 0.00 11 995.2
20260502222851 31 208 2.0 5.0 0.00 0.00 0.00 11 995.1
20260502222713 31 207 1.0 5.0 0.00 0.00 0.00 11 995.3
20260502222703 31 207 1.0 5.0 0.00 0.00 0.00 11 995.3
20260502222351 31 203 1.0 5.0 0.00 0.00 0.00 11 995.2
20260502221851 31 203 2.0 4.0 0.00 0.00 0.00 11 995.2
20260502221803 31 203 2.0 4.0 0.00 0.00 0.00 11 995.2
20260502221351 31 218 2.0 4.0 0.00 0.00 0.00 11 995.3
20260502220903 32 223 0.0 4.0 0.00 0.00 0.00 11 995.2
20260502220851 32 224 1.0 4.0 0.00 0.00 0.00 11 995.1
20260502220712 32 228 2.0 4.0 0.00 0.00 0.00 11 995.1
20260502220351 32 220 2.0 4.0 0.00 0.00 0.00 11 995.1
20260502220003 32 213 2.0 4.0 0.00 0.00 0.00 11 995.2
20260502215850 32 209 1.0 4.0 0.00 0.00 0.00 11 995.2
20260502215403 32 205 0.0 4.0 0.00 0.00 0.00 11 995.3
20260502215350 32 209 1.0 4.0 0.00 0.00 0.00 11 995.3
20260502214851 32 201 1.0 5.0 0.00 0.00 0.00 11 995.3
20260502214712 32 203 1.0 5.0 0.00 0.00 0.00 11 995.3
20260502214503 33 203 1.0 5.0 0.00 0.00 0.00 11 995.4
20260502214351 33 208 1.0 6.0 0.00 0.00 0.00 11 995.4
20260502213744 33 215 2.0 6.0 0.00 0.00 0.00 11 995.2
20260502213603 33 217 3.0 6.0 0.00 0.00 0.00 11 995.1
20260502213244 33 213 2.0 5.0 0.00 0.00 0.00 11 995.2
20260502212744 33 214 2.0 5.0 0.00 0.00 0.00 11 995.2
20260502212712 33 214 2.0 5.0 0.00 0.00 0.00 11 995.2
20260502212703 33 214 2.0 5.0 0.00 0.00 0.00 11 995.2
20260502212244 33 225 3.0 5.0 0.00 0.00 0.00 11 995.3
20260502211803 33 224 2.0 4.0 0.00 0.00 0.00 11 995.2
20260502211743 33 224 2.0 4.0 0.00 0.00 0.00 11 995.2
20260502211243 34 219 1.0 4.0 0.00 0.00 0.00 11 995.4
20260502210903 34 230 2.0 4.0 0.00 0.00 0.00 11 995.4
20260502210743 34 240 1.0 4.0 0.00 0.00 0.00 11 995.2
20260502210711 34 240 1.0 4.0 0.00 0.00 0.00 11 995.2
20260502210243 34 279 1.0 6.0 0.00 0.00 0.00 11 995.4
20260502210003 34 288 1.0 6.0 0.00 0.00 0.00 11 995.3
20260502205743 35 266 2.0 6.0 0.00 0.00 0.00 11 995.2
20260502205403 35 242 2.0 6.0 0.00 0.00 0.00 11 995.2
20260502205243 35 233 2.0 6.0 0.00 0.00 0.00 11 995.3
20260502204743 35 223 3.0 7.0 0.00 0.00 0.00 11 995.3
20260502204711 35 223 3.0 7.0 0.00 0.00 0.00 11 995.3
20260502204503 35 221 2.0 7.0 0.00 0.00 0.00 11 995.3
20260502204243 35 221 2.0 7.0 0.00 0.00 0.00 11 995.2
20260502203743 35 246 4.0 8.0 0.00 0.00 0.00 11 995.4
20260502203603 35 255 4.0 8.0 0.00 0.00 0.00 11 995.3
20260502203243 36 278 3.0 9.0 0.00 0.00 0.00 11 995.3
20260502202743 36 261 5.0 11.0 0.00 0.00 0.00 11 995.4
20260502202711 36 261 5.0 11.0 0.00 0.00 0.00 11 995.4
20260502202703 36 257 5.0 11.0 0.00 0.00 0.00 11 995.4
20260502202243 36 233 4.0 11.0 0.00 0.00 0.00 11 995.3
20260502201803 36 216 5.0 9.0 0.00 0.00 0.00 11 995.1
20260502201743 36 218 3.0 9.0 0.00 0.00 0.00 11 995.2
20260502201243 36 224 2.0 8.0 0.00 0.00 0.00 11 995.3
20260502200903 36 232 2.0 5.0 0.00 0.00 0.00 11 995.3
20260502200743 36 239 2.0 7.0 0.00 0.00 0.00 11 995.2
20260502200711 36 239 2.0 7.0 0.00 0.00 0.00 11 995.2
20260502200243 36 223 2.0 8.0 0.00 0.00 0.00 11 995.1
20260502200003 36 215 2.0 8.0 0.00 0.00 0.00 11 995.1
20260502195743 36 205 2.0 8.0 0.00 0.00 0.00 11 995.1
20260502195403 36 203 2.0 7.0 0.00 0.00 0.00 11 995.2
20260502195243 36 209 3.0 7.0 0.00 0.00 0.00 11 995.2
20260502194743 36 216 1.0 4.0 0.00 0.00 0.00 11 995.2
20260502194711 36 216 1.0 4.0 0.00 0.00 0.00 11 995.2
20260502194503 36 216 2.0 6.0 0.00 0.00 0.00 11 995.2
20260502194243 37 220 2.0 8.0 0.00 0.00 0.00 11 995.2
20260502193743 37 220 2.0 8.0 0.00 0.00 0.00 11 995.2
20260502193603 37 223 2.0 8.0 0.00 0.00 0.00 11 995.3
20260502193244 37 220 3.0 7.0 0.00 0.00 0.00 11 995.3
20260502192744 37 220 2.0 7.0 0.00 0.00 0.00 11 995.3
20260502192712 37 220 2.0 7.0 0.00 0.00 0.00 11 995.3
20260502192703 37 220 2.0 7.0 0.00 0.00 0.00 11 995.3
20260502192244 38 237 2.0 8.0 0.00 0.00 0.00 11 995.2
20260502191803 38 242 2.0 8.0 0.00 0.00 0.00 11 995.2
20260502191744 38 246 3.0 8.0 0.00 0.00 0.00 11 995.1
20260502191244 38 284 2.0 8.0 0.00 0.00 0.00 11 995.0
20260502190903 38 305 2.0 10.0 0.00 0.00 0.00 11 995.1
20260502190744 38 310 2.0 10.0 0.00 0.00 0.00 11 995.1
20260502190712 38 310 2.0 10.0 0.00 0.00 0.00 11 995.1
20260502190244 39 291 4.0 10.0 0.00 0.00 0.00 11 995.0
20260502190003 39 271 4.0 10.0 0.00 0.00 0.00 11 995.0
20260502185744 39 239 2.0 7.0 0.00 0.00 0.00 11 995.0
20260502185403 39 247 4.0 8.0 0.00 0.00 0.00 11 995.0
20260502185244 39 243 1.0 8.0 0.00 0.00 0.00 11 995.0
20260502184744 40 262 3.0 11.0 0.00 0.00 0.00 11 995.0
20260502184712 40 262 3.0 11.0 0.00 0.00 0.00 11 995.0
20260502184503 40 261 5.0 11.0 0.00 0.00 0.00 11 995.0
20260502184244 41 274 3.0 11.0 0.00 0.00 0.00 11 995.0
20260502183744 42 275 2.0 10.0 0.00 0.00 0.00 11 995.1
20260502183603 42 277 5.0 10.0 0.00 0.00 0.00 11 994.9
20260502183244 42 282 3.0 10.0 0.00 0.00 0.00 11 994.9
20260502182712 42 281 4.0 10.0 0.00 0.00 0.00 11 994.9
20260502182703 42 283 4.0 10.0 0.00 0.00 0.00 11 994.9
20260502182632 42 287 7.0 10.0 0.00 0.00 0.00 11 995.0
20260502182132 42 251 5.0 10.0 0.00 0.00 0.00 11 994.9
20260502181803 42 247 2.0 13.0 0.00 0.00 0.00 11 994.8
20260502181632 42 239 5.0 13.0 0.00 0.00 0.00 11 995.0
20260502181132 42 250 4.0 13.0 0.00 0.00 0.00 11 994.9
20260502180903 43 244 4.0 13.0 0.00 0.00 0.00 11 994.8
20260502180712 43 244 2.0 12.0 0.00 0.00 0.00 11 994.9
20260502180632 43 249 4.0 12.0 0.00 0.00 0.00 11 994.9
20260502180132 43 274 4.0 17.0 0.00 0.00 0.00 11 994.6
20260502170133 44 272 4.0 13.0 0.00 0.00 0.00 11 995.0
20260502164133 45 271 5.0 13.0 0.00 0.00 0.00 11 995.0
20260502163633 45 258 7.0 15.0 0.00 0.00 0.00 11 994.9
20260502163603 45 262 7.0 15.0 0.00 0.00 0.00 11 994.9
20260502163133 45 269 5.0 15.0 0.00 0.00 0.00 11 995.1
20260502162711 45 265 4.0 15.0 0.00 0.00 0.00 11 995.0
20260502162703 45 265 4.0 15.0 0.00 0.00 0.00 11 995.0
20260502162633 45 271 7.0 16.0 0.00 0.00 0.00 11 994.8
20260502162133 45 271 7.0 16.0 0.00 0.00 0.00 11 995.0
20260502161803 44 268 4.0 16.0 0.00 0.00 0.00 11 995.0
20260502161633 45 265 7.0 16.0 0.00 0.00 0.00 11 995.0
20260502161133 45 264 3.0 13.0 0.00 0.00 0.00 11 995.1
20260502160903 45 268 6.0 13.0 0.00 0.00 0.00 11 995.0
20260502160711 45 267 8.0 13.0 0.00 0.00 0.00 11 995.0
20260502160632 45 266 8.0 13.0 0.00 0.00 0.00 11 995.1
20260502160132 45 288 8.0 16.0 0.00 0.00 0.00 11 994.9
20260502152132 45 297 8.0 14.0 0.00 0.00 0.00 11 995.0
20260502151803 46 288 6.0 17.0 0.00 0.00 0.00 11 995.2
20260502151632 46 254 4.0 17.0 0.00 0.00 0.00 11 995.0
20260502151132 46 227 4.0 17.0 0.00 0.00 0.00 11 995.0
20260502150903 47 231 6.0 17.0 0.00 0.00 0.00 11 995.0
20260502150712 46 233 8.0 17.0 0.00 0.00 0.00 11 995.1
20260502150632 46 237 8.0 17.0 0.00 0.00 0.00 11 995.1
20260502150132 46 251 8.0 17.0 0.00 0.00 0.00 11 995.1
20260502130711 47 272 8.0 15.0 0.00 0.00 0.00 11 994.9
20260502130633 47 269 8.0 16.0 0.00 0.00 0.00 11 994.9
20260502130133 47 287 8.0 21.0 0.00 0.00 0.00 11 994.9
20260502123632 46 336 5.0 21.0 0.00 0.00 0.00 11 994.6
20260502123603 46 336 5.0 21.0 0.00 0.00 0.00 11 994.6
20260502123132 45 354 8.0 21.0 0.00 0.00 0.00 11 994.8
20260502122712 45 352 11.0 21.0 0.00 0.00 0.00 11 994.6
20260502122703 45 352 11.0 21.0 0.00 0.00 0.00 11 994.6
20260502122632 45 356 13.0 21.0 0.00 0.00 0.00 11 994.8
20260502122132 46 353 9.0 17.0 0.00 0.00 0.00 11 994.7
20260502121803 46 355 10.0 18.0 0.00 0.00 0.00 11 994.7
20260502121632 46 344 10.0 18.0 0.00 0.00 0.00 11 994.7
20260502121132 46 342 6.0 18.0 0.00 0.00 0.00 11 994.6
20260502120904 46 337 12.0 18.0 0.00 0.00 0.00 11 994.7
20260502120712 47 335 8.0 15.0 0.00 0.00 0.00 11 994.5
20260502120632 47 331 7.0 19.0 0.00 0.00 0.00 11 994.5
20260502120132 49 305 6.0 19.0 0.00 0.00 0.00 11 994.5
20260502115632 48 304 8.0 19.0 0.00 0.00 0.00 11 994.5
20260502115403 48 304 4.0 17.0 0.00 0.00 0.00 11 994.6
20260502115132 49 308 7.0 17.0 0.00 0.00 0.00 11 994.6
20260502114712 48 327 9.0 17.0 0.00 0.00 0.00 11 994.4
20260502114632 48 336 6.0 17.0 0.00 0.00 0.00 11 994.3
20260502114503 47 341 6.0 16.0 0.00 0.00 0.00 11 994.3
20260502114132 47 349 6.0 16.0 0.00 0.00 0.00 11 994.3
20260502113632 47 344 6.0 16.0 0.00 0.00 0.00 11 994.4
20260502113603 47 344 6.0 16.0 0.00 0.00 0.00 11 994.4
20260502113132 48 340 9.0 15.0 0.00 0.00 0.00 11 994.5
20260502112712 48 322 7.0 17.0 0.00 0.00 0.00 11 994.4
20260502112703 48 322 7.0 17.0 0.00 0.00 0.00 11 994.4
20260502112632 47 322 7.0 17.0 0.00 0.00 0.00 11 994.5
20260502112132 48 304 7.0 21.0 0.00 0.00 0.00 11 994.6
20260502111803 48 279 7.0 21.0 0.00 0.00 0.00 11 994.6
20260502111633 48 257 4.0 21.0 0.00 0.00 0.00 11 994.6
20260502111132 49 222 9.0 21.0 0.00 0.00 0.00 11 994.6
20260502110903 49 212 13.0 21.0 0.00 0.00 0.00 11 994.4
20260502110712 49 221 12.0 21.0 0.00 0.00 0.00 11 994.3
20260502110632 49 218 7.0 21.0 0.00 0.00 0.00 11 994.3
20260502110133 49 251 5.0 23.0 0.00 0.00 0.00 11 994.3
20260502110004 49 258 5.0 23.0 0.00 0.00 0.00 11 994.4
20260502105632 49 254 9.0 23.0 0.00 0.00 0.00 11 994.4
20260502105403 50 243 13.0 23.0 0.00 0.00 0.00 11 994.3
20260502105132 50 237 7.0 21.0 0.00 0.00 0.00 11 994.2
20260502104712 50 260 12.0 21.0 0.00 0.00 0.00 11 994.3
20260502104632 50 272 9.0 18.0 0.00 0.00 0.00 11 994.3
20260502104503 50 287 4.0 17.0 0.00 0.00 0.00 11 994.3
20260502104134 48 309 7.0 17.0 0.00 0.00 0.00 11 994.3
20260502103632 46 326 8.0 15.0 0.00 0.00 0.00 11 994.0
20260502103603 46 326 8.0 15.0 0.00 0.00 0.00 11 994.0
20260502103536 46 326 8.0 11.0 0.00 0.00 0.00 11 994.2
20260502103036 46 349 4.0 14.0 0.00 0.00 0.00 11 994.0
20260502102712 46 345 7.0 14.0 0.00 0.00 0.00 11 994.1
20260502102703 46 345 7.0 14.0 0.00 0.00 0.00 11 994.1
20260502102538 46 344 6.0 14.0 0.00 0.00 0.00 11 994.2
20260502102038 47 283 10.0 17.0 0.00 0.00 0.00 11 994.4
20260502101803 47 269 7.0 17.0 0.00 0.00 0.00 11 994.3
20260502101536 48 253 6.0 17.0 0.00 0.00 0.00 11 994.3
20260502101038 50 231 7.0 16.0 0.00 0.00 0.00 11 994.1
20260502100903 50 224 4.0 16.0 0.00 0.00 0.00 11 994.2
20260502100712 50 220 7.0 17.0 0.00 0.00 0.00 11 994.3
20260502100538 49 230 4.0 18.0 0.00 0.00 0.00 11 994.2
20260502091037 47 263 3.0 11.0 0.00 0.00 0.00 11 994.1
20260502090903 47 261 4.0 11.0 0.00 0.00 0.00 11 993.9
20260502090713 47 255 5.0 14.0 0.00 0.00 0.00 11 993.9
20260502090537 47 243 4.0 14.0 0.00 0.00 0.00 11 993.9
20260502071323 48 221 8.0 17.0 0.00 0.00 0.00 11 993.7
20260502070903 48 220 2.0 17.0 0.00 0.00 0.00 11 993.6
20260502070823 48 218 4.0 17.0 0.00 0.00 0.00 11 993.6
20260502070713 48 218 5.0 17.0 0.00 0.00 0.00 11 993.7
20260502070323 48 222 5.0 11.0 0.00 0.00 0.00 11 993.6
20260502070003 48 226 4.0 13.0 0.00 0.00 0.00 11 993.4
20260502065823 48 225 4.0 13.0 0.00 0.00 0.00 11 993.3
20260502065403 48 226 4.0 13.0 0.00 0.00 0.00 11 993.4
20260502065323 48 225 4.0 13.0 0.00 0.00 0.00 11 993.5
20260502064823 48 230 5.0 12.0 0.00 0.00 0.00 11 993.3
20260502064713 48 224 6.0 12.0 0.00 0.00 0.00 11 993.3
20260502064503 48 224 5.0 12.0 0.00 0.00 0.00 11 993.2
20260502064323 48 222 4.0 12.0 0.00 0.00 0.00 11 993.3
20260502063823 47 229 7.0 12.0 0.00 0.00 0.00 11 993.4
20260502063603 47 228 4.0 14.0 0.00 0.00 0.00 11 993.4
20260502063323 47 228 4.0 14.0 0.00 0.00 0.00 11 993.3
20260502062823 47 224 5.0 21.0 0.00 0.00 0.00 11 993.4
20260502062713 47 219 8.0 21.0 0.00 0.00 0.00 11 993.4
20260502062703 47 219 8.0 21.0 0.00 0.00 0.00 11 993.4
20260502062323 47 217 6.0 21.0 0.00 0.00 0.00 11 993.3
20260502061823 47 213 8.0 21.0 0.00 0.00 0.00 11 993.4
20260502061803 47 213 8.0 21.0 0.00 0.00 0.00 11 993.4
20260502061323 47 216 6.0 15.0 0.00 0.00 0.00 11 993.4
20260502060903 47 220 3.0 15.0 0.00 0.00 0.00 11 993.5
20260502060823 47 215 4.0 15.0 0.00 0.00 0.00 11 993.5
20260502060713 47 221 6.0 18.0 0.00 0.00 0.00 11 993.4
20260502060322 47 218 6.0 18.0 0.00 0.00 0.00 11 993.3
20260502060003 47 221 4.0 18.0 0.00 0.00 0.00 11 993.2
20260502055822 47 222 6.0 18.0 0.00 0.00 0.00 11 993.3
20260502055403 47 224 5.0 17.0 0.00 0.00 0.00 11 993.4
20260502055322 47 226 6.0 17.0 0.00 0.00 0.00 11 993.5
20260502054822 47 223 11.0 17.0 0.00 0.00 0.00 11 993.6
20260502054712 47 229 9.0 19.0 0.00 0.00 0.00 11 993.4
20260502054503 47 222 8.0 21.0 0.00 0.00 0.00 11 993.5
20260502054322 47 212 2.0 21.0 0.00 0.00 0.00 11 993.5
20260502053822 47 216 8.0 21.0 0.00 0.00 0.00 11 993.7
20260502053603 47 222 7.0 21.0 0.00 0.00 0.00 11 993.5
20260502053322 47 232 5.0 15.0 0.00 0.00 0.00 11 993.6
20260502052822 47 215 5.0 15.0 0.00 0.00 0.00 11 993.6
20260502052712 47 229 8.0 15.0 0.00 0.00 0.00 11 993.6
20260502052703 47 229 8.0 15.0 0.00 0.00 0.00 11 993.6
20260502052323 47 233 7.0 15.0 0.00 0.00 0.00 11 993.6
20260502051823 47 233 4.0 15.0 0.00 0.00 0.00 11 993.7
20260502051803 47 233 8.0 15.0 0.00 0.00 0.00 11 993.8
20260502051323 47 206 8.0 15.0 0.00 0.00 0.00 11 993.7
20260502050903 47 208 5.0 11.0 0.00 0.00 0.00 11 993.8
20260502050823 47 208 4.0 11.0 0.00 0.00 0.00 11 993.8
20260502050711 47 207 4.0 12.0 0.00 0.00 0.00 11 993.8
20260502050323 47 208 4.0 12.0 0.00 0.00 0.00 11 993.9
20260502050003 47 207 4.0 14.0 0.00 0.00 0.00 11 993.8
20260502045823 46 206 8.0 14.0 0.00 0.00 0.00 11 993.9
20260502045403 46 204 4.0 14.0 0.00 0.00 0.00 11 993.8
20260502045323 46 210 4.0 14.0 0.00 0.00 0.00 11 993.9
20260502044823 46 223 4.0 18.0 0.00 0.00 0.00 11 993.8
20260502044711 46 226 6.0 18.0 0.00 0.00 0.00 11 993.9
20260502044503 46 228 8.0 18.0 0.00 0.00 0.00 11 993.9
20260502044323 46 222 4.0 18.0 0.00 0.00 0.00 11 994.0
20260502043823 46 206 4.0 13.0 0.00 0.00 0.00 11 993.9
20260502043603 46 207 8.0 13.0 0.00 0.00 0.00 11 994.1
20260502043323 46 210 5.0 11.0 0.00 0.00 0.00 11 994.2
20260502042823 46 219 3.0 16.0 0.00 0.00 0.00 11 994.1
20260502042711 46 215 4.0 16.0 0.00 0.00 0.00 11 994.2
20260502042703 46 215 4.0 16.0 0.00 0.00 0.00 11 994.2
20260502042323 46 219 7.0 16.0 0.00 0.00 0.00 11 994.1
20260502041823 46 222 2.0 11.0 0.00 0.00 0.00 11 994.3
20260502041803 46 223 4.0 11.0 0.00 0.00 0.00 11 994.2
20260502041323 46 221 5.0 17.0 0.00 0.00 0.00 11 994.4
20260502040903 46 232 3.0 17.0 0.00 0.00 0.00 11 994.5
20260502040823 46 232 6.0 17.0 0.00 0.00 0.00 11 994.4
20260502040251 46 227 7.0 12.0 0.00 0.00 0.00 11 994.5
20260502040003 46 223 4.0 12.0 0.00 0.00 0.00 11 994.4
20260502035751 46 225 8.0 12.0 0.00 0.00 0.00 11 994.6
20260502035403 46 223 4.0 12.0 0.00 0.00 0.00 11 994.5
20260502035251 46 223 3.0 12.0 0.00 0.00 0.00 11 994.5
20260502034751 46 220 8.0 15.0 0.00 0.00 0.00 11 994.6
20260502034711 46 220 8.0 15.0 0.00 0.00 0.00 11 994.6
20260502034503 46 217 6.0 15.0 0.00 0.00 0.00 11 994.6
20260502034251 46 217 4.0 17.0 0.00 0.00 0.00 11 994.5
20260502033751 46 211 8.0 17.0 0.00 0.00 0.00 11 994.7
20260502033603 46 212 5.0 17.0 0.00 0.00 0.00 11 994.6
20260502033251 46 210 5.0 17.0 0.00 0.00 0.00 11 994.6
20260502032751 46 222 7.0 14.0 0.00 0.00 0.00 11 994.8
20260502032711 46 222 7.0 14.0 0.00 0.00 0.00 11 994.8
20260502032703 46 222 7.0 14.0 0.00 0.00 0.00 11 994.8
20260502032251 46 225 6.0 13.0 0.00 0.00 0.00 11 994.9
20260502031803 46 230 4.0 10.0 0.00 0.00 0.00 11 994.9
20260502031751 46 221 4.0 10.0 0.00 0.00 0.00 11 995.0
20260502031250 46 213 4.0 11.0 0.00 0.00 0.00 11 995.0
20260502030903 46 212 5.0 11.0 0.00 0.00 0.00 11 995.0
20260502030751 46 213 4.0 11.0 0.00 0.00 0.00 11 995.1
20260502030711 46 213 4.0 11.0 0.00 0.00 0.00 11 995.1
20260502030251 46 217 4.0 11.0 0.00 0.00 0.00 11 995.1
20260502030003 46 220 4.0 11.0 0.00 0.00 0.00 11 995.1
20260502025751 46 222 4.0 13.0 0.00 0.00 0.00 11 995.2
20260502025403 46 224 6.0 13.0 0.00 0.00 0.00 11 995.2
20260502025251 46 223 4.0 13.0 0.00 0.00 0.00 11 995.1
20260502024751 46 220 4.0 12.0 0.00 0.00 0.00 11 995.1
20260502024711 46 220 4.0 12.0 0.00 0.00 0.00 11 995.1
20260502024504 46 222 2.0 12.0 0.00 0.00 0.00 11 995.3
20260502024251 46 212 8.0 12.0 0.00 0.00 0.00 11 995.3
20260502023751 46 218 2.0 10.0 0.00 0.00 0.00 11 995.3
20260502023603 46 218 3.0 10.0 0.00 0.00 0.00 11 995.4
20260502023251 46 243 4.0 8.0 0.00 0.00 0.00 11 995.4
20260502022711 47 233 2.0 11.0 0.00 0.00 0.00 11 995.6
20260502022703 47 233 2.0 11.0 0.00 0.00 0.00 11 995.6
20260502022637 47 233 4.0 12.0 0.00 0.00 0.00 11 995.5
20260502022137 47 228 5.0 12.0 0.00 0.00 0.00 11 995.6
20260502021803 47 230 4.0 12.0 0.00 0.00 0.00 11 995.5
20260502021637 47 224 4.0 12.0 0.00 0.00 0.00 11 995.5
20260502021137 47 224 4.0 8.0 0.00 0.00 0.00 11 995.8
20260502020903 47 224 3.0 10.0 0.00 0.00 0.00 11 995.7
20260502020711 47 225 4.0 13.0 0.00 0.00 0.00 11 995.7
20260502020637 47 225 4.0 13.0 0.00 0.00 0.00 11 995.9
20260502020137 47 230 4.0 19.0 0.00 0.00 0.00 11 995.8
20260502020003 47 233 4.0 19.0 0.00 0.00 0.00 11 995.7
20260502015637 47 236 3.0 19.0 0.00 0.00 0.00 11 995.7
20260502015403 47 239 4.0 19.0 0.00 0.00 0.00 11 995.8
20260502015137 47 241 11.0 19.0 0.00 0.00 0.00 11 995.7
20260502014711 48 223 4.0 15.0 0.00 0.00 0.00 11 995.8
20260502014638 48 225 3.0 15.0 0.00 0.00 0.00 11 995.8
20260502014503 48 227 6.0 15.0 0.00 0.00 0.00 11 995.9
20260502014137 48 211 3.0 20.0 0.00 0.00 0.00 11 995.9
20260502013637 48 207 6.0 20.0 0.00 0.00 0.00 11 996.0
20260502013603 48 207 6.0 20.0 0.00 0.00 0.00 11 996.0
20260502013137 48 195 4.0 16.0 0.00 0.00 0.00 11 996.1
20260502012711 48 213 4.0 17.0 0.00 0.00 0.00 11 996.0
20260502012703 48 214 4.0 17.0 0.00 0.00 0.00 11 996.0
20260502012637 48 218 7.0 17.0 0.00 0.00 0.00 11 996.0
20260502012137 48 231 4.0 17.0 0.00 0.00 0.00 11 996.1
20260502011803 48 225 7.0 17.0 0.00 0.00 0.00 11 995.9
20260502011637 48 211 5.0 13.0 0.00 0.00 0.00 11 996.0
20260502011136 48 187 2.0 12.0 0.00 0.00 0.00 11 996.3
20260502010903 48 185 5.0 12.0 0.00 0.00 0.00 11 996.4
20260502010712 48 192 6.0 12.0 0.00 0.00 0.00 11 996.3
20260502010636 48 197 6.0 12.0 0.00 0.00 0.00 11 996.3
20260502010136 48 217 6.0 13.0 0.00 0.00 0.00 11 996.4
20260502010004 48 221 6.0 13.0 0.00 0.00 0.00 11 996.4
20260502005636 48 222 4.0 13.0 0.00 0.00 0.00 11 996.4
20260502005403 48 222 6.0 13.0 0.00 0.00 0.00 11 996.4